SL-16 DEB, 39891

Orbit data source: Space-Track

SL-16 DEB, 39891 is space debris in LEO originally from a launch on Fri, 26 Mar 1993 UTC launched from the Tyuratam Missile And Space Complex (TTMTR). Debris objects in space refer to the collection of defunct objects orbiting the Earth. Examples of debris include non-operational satellites, rocket bodies, and fragments generated from explosions, collisions, or faulty payload assembly.

Loading next visibility...
Identifier
39891, 1993-016BR
Orbit
LEO
Country
Flag of CISCIS
Related business
Manufacturer
Unknown
Mission
Spacecraft
Bus & Motor
Unknown
Mass
Unknown
Launch date (UTC)
1993-03-26 (33 years ago)
Launch vehicle
Unknown
Launch site
Tyuratam Missile And Space Complex (TTMTR)
Object type
Payload
Rocket body
Debris
Shape & HBR
Unknown shape, 0.1 m
Radar Cross Section
Small (<0.1 m²)

Expand to show TLE details & history
Last TLE update: 1 day ago

TLE from 1 day ago
0 SL-16 DEB
1 39891U 93016BR  26254.65773692  .00001370  00000-0  40747-3 0  9999
2 39891  70.9979  30.7115 0008893  47.8827 312.3066 14.44928700642725
Epoch: 2026-09-11T15:47Z
TLE epoch observation values (Epoch: 2026-09-11T15:47:08.469Z)
Latitude
-0.00003°
Longitude
163.24826°
Altitude
740.434 km
Speed
7.487 km/s
True Right ascension
02h 02m 50s
True Declination
0° 00' 00"
Sunlit
Object was in full shadow at epoch
Visualization orbit readout
Latitude
Unknown
Longitude
Unknown
Altitude
Unknown
Speed
Unknown
Apparent Right ascension
Unknown
Apparent Declination
Unknown
Sunlit
N/A
Visualization observer readout
Local Sidereal Time
12:41:11
Azimuth
Unknown
Elevation
Unknown
Doppler factor
Unknown
Orbital elements
Apogee altitude
746.486 km
Perigee altitude
733.826 km
Semi-major axis
7,118.293 km
Eccentricity
0.00089
Inclination
70.9979°
RAAN
30.7115°
Arg. of periapsis
47.8827°
True anomaly
312.23118°
Mean anomaly
312.3066°
Eccentric anomaly
312.26889°
Mean motion
3.61393 °/min
Orbital period
99.61 mins
BSTAR
0.00040747
Loading maneuver chart data...
Computing Atmospheric mass density...
Loading historical data...
Loading historical data...
Loading historical data...
Loading historical data...
Loading historical data...
Loading historical data...
Loading historical data...

Documentation

Showing up to 5 results
|